User: anonymous   Login
Location: Sun City Center
(27.6996°N, 82.3528°W)
Time: 23:35:14
(UTC-04:00)
Language:

Cosmos 2084 Rocket - Orbit

View from above orbital plane
View from above orbital plane
View from above satellite
View from above satellite

Ground track
Ground track

The orbit data is extracted from the following two-line orbital elements,

1 20666U 90055D   16126.19261141  .00000754  00000-0  81573-4 0  9994
2 20666  62.7845  69.3838 0131334  69.0175 292.4912 14.91536797400313
Epoch (UTC): 05 May 2016 04:37:21
Eccentricity: 0.0131334
inclination: 62.7845°
perigee height: 501 km
apogee height: 685 km
right ascension of ascending node: 69.3838°
argument of perigee: 69.0175°
revolutions per day: 14.91536797
mean anomaly at epoch: 292.4912°
orbit number at epoch: 40031

The dashed part of the orbit path shows where the satellite is in the earth's shadow,  

DLR